When you browse on this site, cookies collect data to enhance your experience and personalize the content and advertising you see.
Visit our Privacy Policy to learn more. By continuing to use the site, you agree to this use of cookies and data.
  • In Sweden
  • List of Countries
  • For 7 days
  • Water Temperature
  • Weather Map
  • Weather Widgets
  • user-avatar
    Login

    Hourly Weather Agvali

    Today, 29 May, Friday

    Time Temperature Precipitation Wind Pressure Humidity
    00:00 +11°C° 0 mm 3 mps 598 mmHg 59%
    01:00 +11°C° 0 mm 3 mps 598 mmHg 59%
    02:00 +11°C° 0 mm 3 mps 598 mmHg 59%
    03:00 +11°C° 0 mm 3 mps 598 mmHg 58%
    04:00 +13°C° 0 mm 2 mps 598 mmHg 58%
    05:00 +14°C° 0 mm 2 mps 598 mmHg 59%
    06:00 +15°C° 0 mm 2 mps 599 mmHg 59%
    07:00 +17°C° 0 mm 2 mps 599 mmHg 52%
    08:00 +19°C° 0 mm 2 mps 600 mmHg 46%
    09:00 +21°C° 0 mm 2 mps 601 mmHg 39%
    10:00 +23°C° 0 mm 2 mps 601 mmHg 36%
    11:00 +24°C° 0 mm 2 mps 601 mmHg 32%
    12:00 +25°C° 0 mm 3 mps 601 mmHg 29%
    13:00 +25°C° 0 mm 3 mps 600 mmHg 29%
    14:00 +25°C° 0 mm 3 mps 600 mmHg 28%
    15:00 +25°C° 0 mm 3 mps 600 mmHg 28%
    16:00 +22°C° 0.4 mm 3 mps 599 mmHg 41%
    17:00 +19°C° 0.4 mm 3 mps 598 mmHg 54%
    18:00 +15°C° 0.4 mm 4 mps 597 mmHg 66%
    19:00 +14°C° 1 mm 4 mps 596 mmHg 72%
    20:00 +12°C° 1 mm 4 mps 596 mmHg 78%
    21:00 +10°C° 1 mm 3 mps 595 mmHg 83%
    22:00 +10°C° 0.3 mm 3 mps 595 mmHg 83%
    23:00 +10°C° 0.3 mm 3 mps 595 mmHg 82%

    Tomorrow, 30 May, Saturday

    Time Temperature Precipitation Wind Pressure Humidity
    00:00 +10°C° 0.3 mm 3 mps 594 mmHg 81%
    01:00 +10°C° 0.1 mm 2 mps 594 mmHg 80%
    02:00 +10°C° 0.1 mm 2 mps 594 mmHg 79%
    03:00 +9°C° 0.1 mm 2 mps 595 mmHg 78%
    04:00 +10°C° 0 mm 2 mps 595 mmHg 78%
    05:00 +12°C° 0 mm 2 mps 596 mmHg 79%
    06:00 +12°C° 0 mm 2 mps 597 mmHg 79%
    07:00 +13°C° 0.1 mm 2 mps 598 mmHg 76%
    08:00 +14°C° 0.1 mm 2 mps 598 mmHg 72%
    09:00 +15°C° 0.1 mm 2 mps 599 mmHg 69%
    10:00 +15°C° 0.1 mm 2 mps 599 mmHg 68%
    11:00 +14°C° 0.1 mm 3 mps 600 mmHg 66%
    12:00 +14°C° 0.1 mm 3 mps 600 mmHg 65%
    13:00 +14°C° 0 mm 3 mps 600 mmHg 65%
    14:00 +14°C° 0 mm 3 mps 600 mmHg 65%
    15:00 +15°C° 0 mm 2 mps 600 mmHg 65%
    16:00 +14°C° 0.1 mm 2 mps 600 mmHg 71%
    17:00 +13°C° 0.1 mm 2 mps 600 mmHg 77%
    18:00 +12°C° 0.1 mm 2 mps 599 mmHg 82%
    19:00 +12°C° 0 mm 2 mps 599 mmHg 86%
    20:00 +11°C° 0 mm 1 mps 599 mmHg 90%
    21:00 +10°C° 0 mm 1 mps 599 mmHg 93%
    22:00 +9°C° 0 mm 1 mps 599 mmHg 93%
    23:00 +9°C° 0 mm 1 mps 599 mmHg 93%

    Day after tomorrow, 31 May, Sunday

    Time Temperature Precipitation Wind Pressure Humidity
    00:00 +8°C° 0 mm 0 mps 599 mmHg 93%
    01:00 +9°C° 0.1 mm 1 mps 598 mmHg 93%
    02:00 +8°C° 0.1 mm 1 mps 598 mmHg 94%
    03:00 +8°C° 0.1 mm 1 mps 598 mmHg 94%
    04:00 +9°C° 0.1 mm 1 mps 599 mmHg 93%
    05:00 +9°C° 0.1 mm 1 mps 599 mmHg 93%
    06:00 +9°C° 0.1 mm 1 mps 599 mmHg 92%
    07:00 +10°C° 0.1 mm 1 mps 600 mmHg 89%
    08:00 +11°C° 0.1 mm 1 mps 600 mmHg 86%
    09:00 +12°C° 0.1 mm 1 mps 601 mmHg 83%
    10:00 +13°C° 0.2 mm 1 mps 601 mmHg 81%
    11:00 +13°C° 0.2 mm 1 mps 601 mmHg 79%
    12:00 +14°C° 0.2 mm 2 mps 601 mmHg 77%
    13:00 +14°C° 0.2 mm 2 mps 601 mmHg 74%
    14:00 +14°C° 0.2 mm 2 mps 601 mmHg 72%
    15:00 +14°C° 0.2 mm 2 mps 601 mmHg 69%
    16:00 +14°C° 0.1 mm 2 mps 600 mmHg 73%
    17:00 +13°C° 0.1 mm 1 mps 600 mmHg 77%
    18:00 +12°C° 0.1 mm 1 mps 600 mmHg 81%
    19:00 +11°C° 0 mm 1 mps 599 mmHg 85%
    20:00 +10°C° 0 mm 1 mps 599 mmHg 89%
    21:00 +9°C° 0 mm 1 mps 599 mmHg 93%
    22:00 +8°C° 0 mm 1 mps 598 mmHg 90%
    23:00 +8°C° 0 mm 1 mps 598 mmHg 88%

    1 June, Monday

    Time Temperature Precipitation Wind Pressure Humidity
    00:00 +6°C° 0 mm 2 mps 597 mmHg 85%
    01:00 +6°C° 0 mm 2 mps 597 mmHg 86%
    02:00 +6°C° 0 mm 2 mps 597 mmHg 86%
    03:00 +6°C° 0 mm 2 mps 596 mmHg 87%
    04:00 +7°C° 0 mm 2 mps 597 mmHg 85%
    05:00 +8°C° 0 mm 2 mps 597 mmHg 83%
    06:00 +9°C° 0 mm 2 mps 598 mmHg 81%
    07:00 +12°C° 0 mm 2 mps 598 mmHg 72%
    08:00 +14°C° 0 mm 2 mps 599 mmHg 64%
    09:00 +16°C° 0 mm 2 mps 600 mmHg 56%
    10:00 +17°C° 0 mm 2 mps 600 mmHg 52%
    11:00 +18°C° 0 mm 2 mps 600 mmHg 48%
    12:00 +19°C° 0 mm 3 mps 600 mmHg 44%
    13:00 +19°C° 0.1 mm 3 mps 600 mmHg 43%
    14:00 +19°C° 0.1 mm 3 mps 600 mmHg 41%
    15:00 +19°C° 0.1 mm 3 mps 599 mmHg 40%
    16:00 +18°C° 0 mm 2 mps 599 mmHg 45%
    17:00 +17°C° 0 mm 2 mps 598 mmHg 51%
    18:00 +17°C° 0 mm 2 mps 597 mmHg 57%
    19:00 +14°C° 0 mm 2 mps 597 mmHg 62%
    20:00 +12°C° 0 mm 2 mps 596 mmHg 67%
    21:00 +9°C° 0 mm 2 mps 595 mmHg 72%
    22:00 +9°C° 0 mm 2 mps 595 mmHg 73%
    23:00 +9°C° 0 mm 2 mps 595 mmHg 74%

    2 June, Tuesday

    Time Temperature Precipitation Wind Pressure Humidity
    00:00 +8°C° 0 mm 2 mps 594 mmHg 75%
    01:00 +8°C° 0 mm 2 mps 594 mmHg 76%
    02:00 +8°C° 0 mm 2 mps 594 mmHg 77%
    03:00 +7°C° 0 mm 2 mps 594 mmHg 78%
    04:00 +8°C° 0 mm 2 mps 594 mmHg 75%
    05:00 +10°C° 0 mm 2 mps 594 mmHg 72%
    06:00 +12°C° 0 mm 2 mps 595 mmHg 69%
    07:00 +13°C° 0 mm 2 mps 596 mmHg 60%
    08:00 +15°C° 0 mm 2 mps 596 mmHg 52%
    09:00 +17°C° 0 mm 2 mps 597 mmHg 43%
    10:00 +17°C° 0.3 mm 3 mps 597 mmHg 44%
    11:00 +18°C° 0.3 mm 3 mps 597 mmHg 45%
    12:00 +18°C° 0.3 mm 4 mps 598 mmHg 46%
    13:00 +17°C° 0.7 mm 3 mps 597 mmHg 51%
    14:00 +16°C° 0.7 mm 3 mps 597 mmHg 57%
    15:00 +14°C° 0.7 mm 3 mps 596 mmHg 63%
    16:00 +13°C° 0.7 mm 3 mps 596 mmHg 69%
    17:00 +13°C° 0.7 mm 2 mps 596 mmHg 74%
    18:00 +12°C° 0.7 mm 2 mps 595 mmHg 80%
    19:00 +11°C° 0.5 mm 1 mps 595 mmHg 84%
    20:00 +10°C° 0.5 mm 1 mps 595 mmHg 89%
    21:00 +7°C° 0.5 mm 0 mps 595 mmHg 93%
    22:00 +8°C° 0.1 mm 1 mps 595 mmHg 92%
    23:00 +8°C° 0.1 mm 1 mps 595 mmHg 90%

    3 June, Wednesday

    Time Temperature Precipitation Wind Pressure Humidity
    00:00 +8°C° 0.1 mm 1 mps 595 mmHg 89%
    01:00 +7°C° 0 mm 1 mps 595 mmHg 89%
    02:00 +6°C° 0 mm 2 mps 595 mmHg 88%
    03:00 +6°C° 0 mm 2 mps 595 mmHg 88%
    04:00 +7°C° 0 mm 2 mps 595 mmHg 86%
    05:00 +8°C° 0 mm 2 mps 596 mmHg 84%
    06:00 +9°C° 0 mm 2 mps 596 mmHg 82%
    07:00 +12°C° 0 mm 2 mps 597 mmHg 73%
    08:00 +14°C° 0 mm 2 mps 598 mmHg 64%
    09:00 +15°C° 0 mm 2 mps 599 mmHg 55%
    10:00 +16°C° 0.1 mm 2 mps 599 mmHg 53%
    11:00 +17°C° 0.1 mm 2 mps 600 mmHg 51%
    12:00 +18°C° 0.1 mm 2 mps 600 mmHg 49%
    13:00 +17°C° 0.5 mm 2 mps 600 mmHg 51%
    14:00 +17°C° 0.5 mm 2 mps 600 mmHg 54%
    15:00 +17°C° 0.5 mm 2 mps 599 mmHg 56%
    16:00 +15°C° 0.7 mm 2 mps 599 mmHg 64%
    17:00 +14°C° 0.7 mm 2 mps 599 mmHg 72%
    18:00 +13°C° 0.7 mm 2 mps 598 mmHg 80%
    19:00 +12°C° 0.1 mm 2 mps 598 mmHg 81%
    20:00 +10°C° 0.1 mm 2 mps 598 mmHg 83%
    21:00 +9°C° 0.1 mm 2 mps 597 mmHg 84%
    22:00 +8°C° 0 mm 3 mps 597 mmHg 83%
    23:00 +8°C° 0 mm 3 mps 597 mmHg 82%
    Show more